Regional Weather Roundup
Issued by NWS Sterling, VA

Home | Current Version | Previous Version | Text Only | Print | Product List | Glossary On
Versions: 1 2 3 4 5 6 7 8 9 10 11 12 13 14 15 16 17 18 19 20 21 22 23 24 25 26 27 28 29 30 31 32 33 34 35 36 37 38 39 40 41 42 43 44 45 46 47 48 49 50
000
ASUS41 KLWX 021110
RWRLWX

REGIONAL WEATHER ROUNDUP
NATIONAL WEATHER SERVICE BALTIMORE MD/WASHINGTON DC
700 AM EDT THU OCT 02 2014

Note: "FAIR" indicates few or no clouds below 12,000 feet
with no significant weather and/or obstructions to visibility.
 TC=TEMPERATURE CELSIUS

 * =Non NWS site. Station does not report precipitation (e.g. rain,
    snow, etc.), thunder, or fog.

DCZ001-MDZ009-015-VAZ040>042-051-053>054-021200-
WASHINGTON METRO

CITY           SKY/WX    TMP DP  RH WIND       PRES   REMARKS
WASHINGTON NAT CLOUDY    64  59  83 CALM      30.12R
DULLES         CLOUDY    59  57  94 CALM      30.12R FOG
ANDREWS AFB    MOCLDY    58  58  99 N3        30.12R FOG
QUANTICO       MOCLDY    63  60  90 VRB3      30.12R
COLLEGE PARK*  CLOUDY    55  55 100 CALM      30.12R
LEESBURG*      CLOUDY    61  61 100 CALM      30.12R FOG
MANASSAS*      CLOUDY    61  59  94 CALM      30.11R FOG
GAITHERSBURG*  CLOUDY    55  55 100 CALM      30.16R VSB 1/2

$$

MDZ006>007-011-014-021200-
BALTIMORE METRO

CITY           SKY/WX    TMP DP  RH WIND       PRES   REMARKS
BWI AIRPORT    MOCLDY    59  57  93 CALM      30.11S
MD SCIENCE CTR   N/A     64  58  80 MISG      30.12R
MARTIN STATE   MOCLDY    63  61  94 CALM      30.13R
ANNAPOLIS      MOCLDY    61  59  93 CALM      30.12R
FORT MEADE*    MOCLDY    52  50  93 CALM      30.14R

$$

MDZ012-015-019>023-021200-
MARYLAND EASTERN SHORE

CITY           SKY/WX    TMP DP  RH WIND       PRES   REMARKS
OCEAN CITY     CLEAR     57  56  96 NW5       30.09R FOG
SALISBURY      PTCLDY    59  55  88 CALM      30.10R FOG
BAY BRIDGE AP*   N/A     59  59 100 CALM      30.11S
CAMBRIDGE*     CLEAR     55  54  94 CALM      30.10R
EASTON*        MOCLDY    57  57 100 CALM      30.14R FOG

$$

MDZ017>025-021200-
SOUTHERN MARYLAND

CITY           SKY/WX    TMP DP  RH WIND       PRES   REMARKS
PATUXENT RIVER PTCLDY    58  57  97 CALM      30.10R
ST INIGOES     CLEAR     57  54  89 CALM      30.10R FOG
LEONARDTOWN*   MOCLDY    57  55  94 CALM      30.12R VSB 1/2

$$

MDZ003>005-021200-
NORTH CENTRAL MARYLAND

CITY           SKY/WX    TMP DP  RH WIND       PRES   REMARKS
FREDERICK*     FOG       57  57 100 CALM      30.15R VSB 1/2
HAGERSTOWN APT FOG       56  55  97 N6        30.12R VSB 1/4
WESTMINSTER*   MOCLDY    55  55 100 CALM      30.13R FOG

$$

MDZ501>502-021200-
WESTERN MARYLAND

CITY           SKY/WX    TMP DP  RH WIND       PRES   REMARKS
OAKLAND*       FOG       50 N/A N/A S5        30.13S VSB 1
CUMBERLAND*    CLOUDY    57  57 100 CALM      30.15R

$$

VAZ025>031-021200-
SHENANDOAH VALLEY

CITY           SKY/WX    TMP DP  RH WIND       PRES   REMARKS
WINCHESTER*    CLOUDY    59  57  94 CALM      30.10S FOG
STAUNTON*      FOG       59  58  96 CALM      30.13S VSB 1/4

$$

WVZ021-048>050-054>055-021200-
EASTERN WEST VIRGINIA PANHANDLE

CITY           SKY/WX    TMP DP  RH WIND       PRES   REMARKS
MARTINSBURG    CLOUDY    58  55  90 NE5       30.12R FOG
PETERSBURG*    CLOUDY   N/A N/A N/A CALM      30.12R

$$

VAZ036>039-050-021200-
CENTRAL FOOTHILLS

CITY           SKY/WX    TMP DP  RH WIND       PRES   REMARKS
CHARLOTTESVILL FOG       60  59  96 CALM      30.11R VSB 1/4
ORANGE*        FOG       61  59  94 CALM      30.12S VSB 1/4

$$

VAZ055>057-021200-
NORTH AND CENTRAL PIEDMONT

CITY           SKY/WX    TMP DP  RH WIND       PRES   REMARKS
FREDERICKSBRG* CLOUDY    62  62 100 CALM      30.10R
STAFFORD*      FOG       57  57 100 CALM      30.15R VSB 1

$$

NCZ024-NYZ072-PAZ021-071-VAZ022-071-021200-
OTHER REGIONAL OBSERVATIONS

CITY           SKY/WX    TMP DP  RH WIND       PRES   REMARKS
NEW YORK CITY  CLOUDY    61  53  75 NE8       30.14R
PHILADELPHIA   MOCLDY    63  56  78 NE8       30.11R
PITTSBURGH     FOG       52  52 100 CALM      30.08R VSB 1/16
ROANOKE        FOG       59  58  96 CALM      30.14S VSB 1
RICHMOND       CLOUDY    65  62  90 CALM      30.10R FOG
RALEIGH        PTCLDY    62  60  93 CALM      30.10R FOG

$$

ANZ530>537-021200-
MARINE OBSERVATIONS

STATION/POSITION TIME  TEMP    WIND        PRES
                       AIR SEA DIR/SP/G
                 (UTC) (F)     (DEG/KT/KT) (MB)
THOMAS PT LIGHT  1100   64 71   70/  5/  5 1020.8R
BALT KEY BRIDGE  1100   63      20/  4/  5 1019.4S
COVE POINT       1100   64      60/  3/  4 1019.1S
LEWISETTA        1100   65 72     CALM     1018.7F
SOLOMONS ISLAND  1100      72                N/A
PINEY POINT      1100           80/  2/  3   N/A

$$



USA.gov is the U.S. government's official web portal to all federal, state and local government web resources and services.